Hoolehua, HI

12:21 AM HST on February 10, 2016 (GMT -1000)
Molokai

Weather History for PHMK - February, 2013

Change the Weather History Date:

Wednesday, February 27, 2013

  Actual Average Record
Temperature  
Mean Temperature 72 °F -  
Max Temperature 77 °F 77 °F 82 °F (1993)
Min Temperature 66 °F 62 °F 54 °F (1991)
Cooling Degree Days 6    
Growing Degree Days 22 (Base 50)    
Moisture  
Dew Point 57 °F    
Average Humidity 62    
Maximum Humidity 73    
Minimum Humidity 43    
Precipitation  
Precipitation 0.00 in - - ()
Sea Level Pressure  
Sea Level Pressure 30.17 in    
Wind  
Wind Speed 15 mph (NE)    
Max Wind Speed 22 mph    
Max Gust Speed 34 mph    
Visibility 10 miles    
Events      
Averages and records for this station are not official NWS values.
T = Trace of Precipitation, MM = Missing Value Source: NWS Daily Summary

Daily Weather History Graph

Daily Weather History Graph

Search for Another Location

Airport or City:

Trip Planner

Search our weather history database for the weather conditions in past years. The results will help you decide how hot, cold, wet, or windy it might be!

Date:

Astronomy

Feb. 27, 2013 Rise Set
Actual Time 6:50 AM HST 6:32 PM HST
Civil Twilight 6:27 AM HST 6:54 PM HST
Nautical Twilight 6:01 AM HST 7:20 PM HST
Astronomical Twilight 5:36 AM HST 7:46 PM HST
Moon 8:38 PM HST (2/27) 7:54 AM HST (2/27)
Length of Visible Light 12h 26m
Length of Day
11h 42m
Waning Gibbous, 95% of the Moon is Illuminated
Feb 27
Waning Gibbous
Mar 4
Last Quarter
Mar 11
New
Mar 19
First Quarter
Mar 26
Full

Hourly Weather History & Observations

Time (HST) Temp. Dew Point Humidity Pressure Visibility Wind Dir Wind Speed Gust Speed Precip Events Conditions
12:54 AM 68.0 °F 57.0 °F 68% 30.18 in 10.0 mi NE 17.3 mph 32.2 mph N/A   Partly Cloudy
1:54 AM 66.9 °F 55.0 °F 66% 30.17 in 10.0 mi ENE 15.0 mph 18.4 mph N/A   Clear
2:54 AM 66.9 °F 57.0 °F 70% 30.16 in 10.0 mi NE 9.2 mph - N/A   Clear
3:54 AM 68.0 °F 59.0 °F 73% 30.16 in 10.0 mi NE 15.0 mph 23.0 mph N/A   Partly Cloudy
4:54 AM 68.0 °F 57.9 °F 70% 30.16 in 10.0 mi NE 17.3 mph 26.5 mph 0.00 in   Scattered Clouds
5:54 AM 68.0 °F 55.9 °F 65% 30.17 in 10.0 mi NE 12.7 mph 21.9 mph N/A   Scattered Clouds
6:54 AM 68.0 °F 55.0 °F 63% 30.18 in 10.0 mi NE 15.0 mph 20.7 mph N/A   Partly Cloudy
7:54 AM 69.1 °F 54.0 °F 58% 30.20 in 10.0 mi NE 9.2 mph 19.6 mph N/A   Partly Cloudy
8:54 AM 72.0 °F 57.0 °F 59% 30.22 in 10.0 mi ENE 15.0 mph 28.8 mph N/A   Partly Cloudy
9:54 AM 75.0 °F 57.0 °F 53% 30.22 in 10.0 mi ENE 18.4 mph 27.6 mph N/A   Clear
10:54 AM 77.0 °F 53.1 °F 43% 30.22 in 10.0 mi NE 12.7 mph 23.0 mph N/A   Clear
11:54 AM 75.0 °F 60.1 °F 60% 30.19 in 10.0 mi NE 17.3 mph 27.6 mph N/A   Clear
12:54 PM 75.0 °F 57.9 °F 55% 30.17 in 10.0 mi NE 21.9 mph 34.5 mph N/A   Clear
1:54 PM 75.0 °F 57.0 °F 53% 30.14 in 10.0 mi NE 20.7 mph 32.2 mph N/A   Scattered Clouds
2:54 PM 75.9 °F 59.0 °F 56% 30.12 in 10.0 mi NE 20.7 mph 32.2 mph N/A   Partly Cloudy
3:54 PM 73.9 °F 57.9 °F 57% 30.12 in 10.0 mi NE 19.6 mph 32.2 mph N/A   Clear
4:54 PM 73.0 °F 59.0 °F 61% 30.13 in 10.0 mi NE 16.1 mph 31.1 mph N/A   Partly Cloudy
5:54 PM 71.1 °F 57.9 °F 63% 30.14 in 10.0 mi ENE 12.7 mph 24.2 mph N/A   Clear
6:54 PM 69.1 °F 59.0 °F 70% 30.16 in 10.0 mi East 13.8 mph 19.6 mph N/A   Clear
7:54 PM 69.1 °F 59.0 °F 70% 30.17 in 10.0 mi ENE 13.8 mph 23.0 mph N/A   Clear
8:54 PM 68.0 °F 57.9 °F 70% 30.18 in 10.0 mi ENE 15.0 mph 23.0 mph N/A   Clear
9:54 PM 69.1 °F 55.9 °F 63% 30.19 in 10.0 mi NE 15.0 mph 21.9 mph N/A   Clear
10:54 PM 68.0 °F 55.9 °F 65% 30.19 in 10.0 mi NE 12.7 mph 18.4 mph N/A   Clear
11:54 PM 68.0 °F 55.9 °F 65% 30.17 in 10.0 mi ENE 17.3 mph 23.0 mph N/A   Clear